Weather History for KERY - November, 2012

Change the Weather History Date:

Wednesday, November 14, 2012

  Actual Average Record
Temperature  
Mean Temperature 32 °F -  
Max Temperature 41 °F 38 °F 63 °F (1958)
Min Temperature 24 °F 25 °F 9 °F (1933)
Degree Days  
Heating Degree Days 32    
Moisture  
Dew Point 30 °F    
Average Humidity 82    
Maximum Humidity 93    
Minimum Humidity 70    
Precipitation  
Precipitation 0.00 in - - ()
Sea Level Pressure  
Sea Level Pressure 30.40 in    
Wind  
Wind Speed 5 mph (South)    
Max Wind Speed 16 mph    
Max Gust Speed 22 mph    
Visibility 10 miles    
Events Rain    
Averages and records for this station are not official NWS values.
T = Trace of Precipitation, MM = Missing Value Source: NWS Daily Summary

Daily Weather History Graph

Daily Weather History Graph

Search for Another Location

Airport or City:

Trip Planner

Search our weather history database for the weather conditions in past years. The results will help you decide how hot, cold, wet, or windy it might be!

Date:

Astronomy

Nov. 14, 2012 Rise Set
Actual Time 7:42 AM EST 5:09 PM EST
Civil Twilight 7:09 AM EST 5:42 PM EST
Nautical Twilight 6:33 AM EST 6:18 PM EST
Astronomical Twilight 5:57 AM EST 6:54 PM EST
Moon 8:34 AM EST (11/14) 5:53 PM EST (11/14)
Length of Visible Light 10h 32m
Length of Day
9h 27m
New Moon, 1% of the Moon is Illuminated
Nov 14
New Moon
Nov 20
First Quarter
Nov 28
Full
Dec 6
Last Quarter
Dec 13
New

Hourly Weather History & Observations

Time (EST) Temp. Windchill Dew Point Humidity Pressure Visibility Wind Dir Wind Speed Gust Speed Precip Events Conditions
12:15 AM 28.4 °F - 26.6 °F 93% 30.41 in 10.0 mi Calm Calm - N/A   Scattered Clouds
12:34 AM 28.4 °F - 24.8 °F 86% 30.41 in 10.0 mi Calm Calm - N/A   Clear
12:55 AM 24.8 °F - 23.0 °F 93% 30.42 in 10.0 mi Calm Calm - N/A   Clear
1:15 AM 26.6 °F - 24.8 °F 93% 30.42 in 10.0 mi Calm Calm - N/A   Clear
1:34 AM 26.6 °F - 24.8 °F 93% 30.42 in 10.0 mi Calm Calm - N/A   Clear
1:55 AM 26.6 °F - 24.8 °F 93% 30.42 in 10.0 mi Calm Calm - N/A   Clear
2:14 AM 26.6 °F 22.6 °F 24.8 °F 93% 30.42 in 10.0 mi SW 3.5 mph - N/A   Clear
2:34 AM 30.2 °F 24.3 °F 26.6 °F 86% 30.43 in 10.0 mi SW 5.8 mph - N/A   Clear
2:55 AM 30.2 °F 24.3 °F 28.4 °F 93% 30.43 in 10.0 mi SW 5.8 mph - N/A   Clear
3:14 AM 32.0 °F 25.6 °F 26.6 °F 80% 30.43 in 10.0 mi SW 6.9 mph - N/A   Scattered Clouds
3:35 AM 30.2 °F 23.4 °F 26.6 °F 86% 30.43 in 10.0 mi SW 6.9 mph - N/A   Clear
3:55 AM 30.2 °F 25.4 °F 26.6 °F 86% 30.42 in 10.0 mi SSW 4.6 mph - N/A   Clear
4:14 AM 30.2 °F 25.4 °F 24.8 °F 80% 30.43 in 10.0 mi SSW 4.6 mph - N/A   Clear
4:35 AM 30.2 °F 26.7 °F 24.8 °F 80% 30.43 in 10.0 mi SSW 3.5 mph - N/A   Clear
4:55 AM 30.2 °F 26.7 °F 26.6 °F 86% 30.43 in 10.0 mi SSW 3.5 mph - N/A   Scattered Clouds
5:14 AM 30.2 °F 26.7 °F 26.6 °F 86% 30.43 in 10.0 mi SSW 3.5 mph - N/A   Scattered Clouds
5:35 AM 28.4 °F - 24.8 °F 86% 30.43 in 10.0 mi Calm Calm - N/A   Scattered Clouds
5:55 AM 26.6 °F 21.2 °F 24.8 °F 93% 30.44 in 10.0 mi SSE 4.6 mph - N/A   Scattered Clouds
6:14 AM 28.4 °F 24.6 °F 26.6 °F 93% 30.44 in 10.0 mi South 3.5 mph - N/A   Overcast
6:35 AM 28.4 °F 23.3 °F 26.6 °F 93% 30.44 in 10.0 mi SSW 4.6 mph - N/A   Overcast
6:54 AM 28.4 °F 24.6 °F 26.6 °F 93% 30.44 in 10.0 mi South 3.5 mph - N/A   Overcast
7:14 AM 28.4 °F 23.3 °F 26.6 °F 93% 30.44 in 10.0 mi SSW 4.6 mph - N/A   Overcast
7:35 AM 28.4 °F 23.3 °F 26.6 °F 93% 30.44 in 10.0 mi SSW 4.6 mph - N/A   Overcast
7:54 AM 30.2 °F 25.4 °F 26.6 °F 86% 30.44 in 10.0 mi SSW 4.6 mph - N/A   Mostly Cloudy
8:15 AM 30.2 °F 25.4 °F 26.6 °F 86% 30.44 in 10.0 mi SSW 4.6 mph - N/A   Scattered Clouds
8:35 AM 32.0 °F 27.5 °F 28.4 °F 87% 30.44 in 10.0 mi SSW 4.6 mph - N/A   Scattered Clouds
8:54 AM 32.0 °F 27.5 °F 28.4 °F 87% 30.44 in 10.0 mi SSW 4.6 mph - N/A   Mostly Cloudy
9:15 AM 33.8 °F 30.8 °F 28.4 °F 81% 30.44 in 10.0 mi South 3.5 mph - N/A   Overcast
9:35 AM 33.8 °F 30.8 °F 28.4 °F 81% 30.44 in 10.0 mi South 3.5 mph - N/A   Overcast
9:54 AM 35.6 °F 32.8 °F 30.2 °F 81% 30.44 in 10.0 mi South 3.5 mph - N/A   Overcast
10:15 AM 35.6 °F 30.7 °F 30.2 °F 81% 30.45 in 10.0 mi South 5.8 mph - N/A   Overcast
10:34 AM 37.4 °F 32.1 °F 30.2 °F 75% 30.45 in 10.0 mi SSW 6.9 mph - N/A   Mostly Cloudy
10:54 AM 37.4 °F 30.3 °F 30.2 °F 75% 30.45 in 10.0 mi SSW 10.4 mph - N/A   Mostly Cloudy
11:14 AM 37.4 °F 31.4 °F 30.2 °F 75% 30.45 in 10.0 mi SSW 8.1 mph - N/A   Scattered Clouds
11:34 AM 37.4 °F 30.8 °F 32.0 °F 81% 30.44 in 10.0 mi SSW 9.2 mph - N/A   Mostly Cloudy
11:55 AM 37.4 °F 32.8 °F 33.8 °F 87% 30.43 in 10.0 mi SSE 5.8 mph - N/A Rain Light Rain
12:14 PM 37.4 °F 32.1 °F 33.8 °F 87% 30.42 in 10.0 mi SSE 6.9 mph - N/A   Overcast
12:35 PM 39.2 °F 32.5 °F 35.6 °F 87% 30.41 in 10.0 mi SSE 10.4 mph - N/A   Overcast
12:55 PM 39.2 °F 32.0 °F 35.6 °F 87% 30.40 in 10.0 mi South 11.5 mph 17.3 mph N/A   Mostly Cloudy
1:14 PM 41.0 °F 35.2 °F 35.6 °F 81% 30.40 in 10.0 mi South 9.2 mph - N/A   Mostly Cloudy
1:35 PM 41.0 °F 33.1 °F 33.8 °F 76% 30.40 in 10.0 mi SSE 15.0 mph - N/A   Mostly Cloudy
1:55 PM 41.0 °F 34.3 °F 33.8 °F 76% 30.39 in 10.0 mi South 11.5 mph 21.9 mph N/A   Overcast
2:14 PM 41.0 °F 34.3 °F 33.8 °F 76% 30.39 in 10.0 mi South 11.5 mph - N/A   Overcast
2:35 PM 41.0 °F 32.8 °F 33.8 °F 76% 30.39 in 10.0 mi South 16.1 mph 21.9 mph N/A   Overcast
2:54 PM 41.0 °F 33.9 °F 33.8 °F 76% 30.38 in 10.0 mi South 12.7 mph 20.7 mph N/A   Overcast
3:14 PM 41.0 °F 33.5 °F 33.8 °F 76% 30.38 in 10.0 mi South 13.8 mph 20.7 mph N/A   Overcast
3:35 PM 41.0 °F 34.3 °F 33.8 °F 76% 30.38 in 10.0 mi South 11.5 mph 17.3 mph N/A   Scattered Clouds
3:54 PM 39.2 °F 32.0 °F 33.8 °F 81% 30.37 in 10.0 mi South 11.5 mph 17.3 mph N/A   Mostly Cloudy
4:15 PM 39.2 °F 30.5 °F 33.8 °F 81% 30.37 in 10.0 mi SSE 16.1 mph - N/A   Mostly Cloudy
4:35 PM 39.2 °F 31.2 °F 33.8 °F 81% 30.36 in 10.0 mi SSE 13.8 mph 20.7 mph N/A   Overcast
4:54 PM 39.2 °F 31.2 °F 33.8 °F 81% 30.36 in 10.0 mi SSE 13.8 mph 18.4 mph N/A   Overcast
5:15 PM 39.2 °F 30.5 °F 33.8 °F 81% 30.36 in 10.0 mi SSE 16.1 mph - N/A   Overcast
5:35 PM 39.2 °F 32.5 °F 33.8 °F 81% 30.35 in 10.0 mi South 10.4 mph 17.3 mph N/A   Overcast
5:54 PM 39.2 °F 32.0 °F 32.0 °F 75% 30.35 in 10.0 mi South 11.5 mph 18.4 mph N/A   Overcast
6:15 PM 39.2 °F 32.5 °F 33.8 °F 81% 30.36 in 10.0 mi South 10.4 mph - N/A   Overcast
6:34 PM 39.2 °F 32.0 °F 33.8 °F 81% 30.35 in 10.0 mi South 11.5 mph 16.1 mph N/A   Overcast
6:55 PM 39.2 °F 32.0 °F 33.8 °F 81% 30.35 in 10.0 mi South 11.5 mph - N/A   Overcast
7:15 PM 39.2 °F 32.5 °F 33.8 °F 81% 30.34 in 10.0 mi South 10.4 mph 18.4 mph N/A   Overcast
7:34 PM 39.2 °F 32.5 °F 33.8 °F 81% 30.34 in 10.0 mi South 10.4 mph - N/A   Overcast
7:55 PM 39.2 °F 32.0 °F 33.8 °F 81% 30.34 in 10.0 mi South 11.5 mph - N/A   Mostly Cloudy
8:15 PM 39.2 °F 31.6 °F 32.0 °F 75% 30.33 in 10.0 mi South 12.7 mph 17.3 mph N/A   Overcast
8:34 PM 39.2 °F 32.0 °F 32.0 °F 75% 30.33 in 10.0 mi South 11.5 mph 16.1 mph N/A   Overcast
8:55 PM 39.2 °F 32.0 °F 32.0 °F 75% 30.34 in 10.0 mi South 11.5 mph 16.1 mph N/A   Overcast
9:35 PM 39.2 °F 32.5 °F 30.2 °F 70% 30.34 in 10.0 mi South 10.4 mph - N/A   Overcast
9:55 PM 37.4 °F 30.3 °F 30.2 °F 75% 30.34 in 10.0 mi South 10.4 mph - N/A   Overcast
10:14 PM 37.4 °F 31.4 °F 30.2 °F 75% 30.33 in 10.0 mi South 8.1 mph - N/A   Overcast
10:35 PM 37.4 °F 30.8 °F 30.2 °F 75% 30.33 in 10.0 mi South 9.2 mph - N/A   Overcast
10:55 PM 37.4 °F 29.8 °F 30.2 °F 75% 30.32 in 10.0 mi South 11.5 mph - N/A   Overcast
11:14 PM 39.2 °F 32.0 °F 32.0 °F 75% 30.32 in 10.0 mi South 11.5 mph 18.4 mph N/A   Overcast
11:35 PM 39.2 °F 32.5 °F 32.0 °F 75% 30.32 in 10.0 mi South 10.4 mph 16.1 mph N/A   Overcast
11:54 PM 39.2 °F 32.0 °F 32.0 °F 75% 30.32 in 10.0 mi South 11.5 mph 17.3 mph N/A   Mostly Cloudy